CZ-6A DEB, 56666

Orbit data source: Space-Track

CZ-6A DEB, 56666 is space debris in SSO originally from a launch on Fri, 11 Nov 2022 UTC launched from the Taiyaun Space Center, China (TSC). Debris objects in space refer to the collection of defunct objects orbiting the Earth. Examples of debris include non-operational satellites, rocket bodies, and fragments generated from explosions, collisions, or faulty payload assembly.

Loading next visibility...
Identifier
56666, 2022-151AGS
Orbit
SSO
Country
Flag of CNCN / PRC
Related business
Manufacturer
SAST
Mission
Spacecraft
Bus & Motor
Unknown
Mass
Unknown
Launch date (UTC)
2022-11-11 (3 years ago)
Launch vehicle
Unknown
Launch site
Taiyaun Space Center, China (TSC)
Object type
Payload
Rocket body
Debris
Shape & HBR
Unknown shape, 0.1 m
Radar Cross Section
Small (<0.1 m²)

Expand to show TLE details & history
Last TLE update: 2 days ago

TLE from 2 days ago
0 CZ-6A DEB
1 56666U 22151AGS 25348.58339018  .00002776  00000-0  80524-3 0  9993
2 56666  98.7544  39.0828 0077701 118.7016 242.2011 14.43468705138752
Epoch: 2025-12-14T14:00Z
TLE epoch observation values (Epoch: 2025-12-14T14:00:04.911Z)
Latitude
-0.00006°
Longitude
105.56812°
Altitude
776.166 km
Speed
7.452 km/s
True Right ascension
02h 36m 19s
True Declination
0° 00' 00"
Sunlit
Object was in full shadow at epoch
Visualization orbit readout
Latitude
Unknown
Longitude
Unknown
Altitude
Unknown
Speed
Unknown
Apparent Right ascension
Unknown
Apparent Declination
Unknown
Sunlit
N/A
Visualization observer readout
Local Sidereal Time
08:22:34
Azimuth
Unknown
Elevation
Unknown
Doppler factor
Unknown
Orbital elements
Apogee altitude
799.531 km
Perigee altitude
688.849 km
Semi-major axis
7,122.327 km
Eccentricity
0.00777
Inclination
98.7544°
RAAN
39.0828°
Arg. of periapsis
118.7016°
True anomaly
241.41705°
Mean anomaly
242.2011°
Eccentric anomaly
241.80872°
Mean motion
3.61086 °/min
Orbital period
99.7 mins
BSTAR
0.00080524
Loading maneuver chart data...
Computing Atmospheric mass density...
Loading historical data...
Loading historical data...
Loading historical data...
Loading historical data...
Loading historical data...
Loading historical data...
Loading historical data...

Documentation

Showing up to 5 results
|